Radiation Dose at Monitoring Post of Fukushima Daini Nuclear Power Station
Date,Time,MP-1(microSv/h),MP-2(microSv/h),MP-3(microSv/h),MP-4(microSv/h),MP-5(microSv/h),MP-6(microSv/h),MP-7(microSv/h),Wind Direction,Wind Velocity(m/s),Rain
2020/11/19,00:00,0.178,0.160,0.265,0.250,0.246,0.143,0.086,southwest,5.9,No
2020/11/19,00:10,0.178,0.160,0.263,0.249,0.247,0.143,0.086,south-southwest,3.9,No
2020/11/19,00:20,0.176,0.160,0.264,0.251,0.246,0.143,0.086,south-southwest,6.5,No
2020/11/19,00:30,0.178,0.161,0.262,0.249,0.247,0.143,0.086,southwest,6.2,No
2020/11/19,00:40,0.177,0.160,0.264,0.252,0.246,0.143,0.086,south-southwest,5.4,No
2020/11/19,00:50,0.179,0.160,0.262,0.250,0.247,0.143,0.085,south-southwest,4.7,No
2020/11/19,01:00,0.177,0.160,0.262,0.250,0.247,0.142,0.086,southwest,6.3,No
2020/11/19,01:10,0.178,0.159,0.263,0.250,0.246,0.143,0.086,southwest,5.0,No
2020/11/19,01:20,0.177,0.159,0.263,0.250,0.247,0.142,0.086,southwest,6.6,No
2020/11/19,01:30,0.177,0.160,0.265,0.250,0.247,0.142,0.086,southwest,6.8,No
2020/11/19,01:40,0.178,0.158,0.263,0.249,0.248,0.142,0.086,southwest,6.7,No
2020/11/19,01:50,0.177,0.160,0.264,0.250,0.246,0.143,0.086,southwest,5.8,No
2020/11/19,02:00,0.178,0.159,0.263,0.250,0.248,0.142,0.085,southwest,4.8,No
2020/11/19,02:10,0.176,0.160,0.265,0.250,0.246,0.142,0.086,southwest,4.6,No
2020/11/19,02:20,0.177,0.161,0.264,0.249,0.247,0.142,0.086,southwest,5.7,No
2020/11/19,02:30,0.178,0.160,0.263,0.249,0.247,0.143,0.086,southwest,6.6,No
2020/11/19,02:40,0.177,0.160,0.265,0.251,0.248,0.142,0.086,southwest,5.3,No
2020/11/19,02:50,0.178,0.160,0.263,0.249,0.246,0.144,0.086,south-southwest,4.8,No
2020/11/19,03:00,0.177,0.161,0.264,0.250,0.248,0.143,0.085,southwest,3.9,No
2020/11/19,03:10,0.178,0.160,0.262,0.250,0.246,0.142,0.086,west-southwest,5.2,No
2020/11/19,03:20,0.177,0.159,0.264,0.249,0.248,0.143,0.086,southwest,4.0,No
2020/11/19,03:30,0.178,0.159,0.262,0.250,0.246,0.143,0.086,south-southwest,4.8,No
2020/11/19,03:40,0.177,0.160,0.265,0.249,0.247,0.144,0.086,south-southwest,4.6,No
2020/11/19,03:50,0.177,0.159,0.264,0.251,0.247,0.142,0.086,south-southwest,4.4,No
2020/11/19,04:00,0.178,0.160,0.264,0.249,0.246,0.142,0.086,south-southwest,4.6,No
2020/11/19,04:10,0.177,0.159,0.263,0.250,0.247,0.142,0.085,south-southwest,4.4,No
2020/11/19,04:20,0.177,0.160,0.263,0.250,0.247,0.143,0.086,south-southwest,4.5,No
2020/11/19,04:30,0.176,0.159,0.265,0.249,0.247,0.143,0.086,south-southwest,4.2,No
2020/11/19,04:40,0.178,0.159,0.263,0.251,0.246,0.143,0.086,south-southwest,4.7,No
2020/11/19,04:50,0.178,0.161,0.262,0.250,0.249,0.143,0.086,south-southwest,4.5,No
2020/11/19,05:00,0.176,0.160,0.265,0.250,0.246,0.143,0.087,south-southwest,4.3,No
2020/11/19,05:10,0.178,0.160,0.263,0.251,0.248,0.144,0.085,south-southwest,4.7,No
2020/11/19,05:20,0.177,0.159,0.264,0.249,0.247,0.143,0.086,southwest,5.6,No
2020/11/19,05:30,0.177,0.159,0.264,0.252,0.247,0.142,0.086,south-southwest,5.0,No
2020/11/19,05:40,0.177,0.160,0.263,0.249,0.246,0.143,0.085,southwest,5.0,No
2020/11/19,05:50,0.178,0.160,0.265,0.249,0.246,0.142,0.085,south-southwest,4.0,No
2020/11/19,06:00,0.178,0.160,0.263,0.249,0.248,0.142,0.085,south-southwest,4.5,No
2020/11/19,06:10,0.178,0.160,0.264,0.250,0.247,0.144,0.085,south,7.3,No
2020/11/19,06:20,0.178,0.159,0.263,0.250,0.248,0.142,0.086,south,7.5,No
2020/11/19,06:30,0.178,0.159,0.264,0.249,0.245,0.143,0.086,south,6.8,No
2020/11/19,06:40,0.177,0.160,0.263,0.249,0.249,0.143,0.085,south,7.0,No
2020/11/19,06:50,0.179,0.159,0.262,0.250,0.246,0.144,0.085,south,7.6,No
2020/11/19,07:00,0.177,0.160,0.265,0.249,0.248,0.143,0.086,south,6.9,No
2020/11/19,07:10,0.177,0.159,0.263,0.250,0.245,0.142,0.086,south,6.8,No
2020/11/19,07:20,0.177,0.160,0.262,0.249,0.247,0.142,0.086,south,6.0,No
2020/11/19,07:30,0.177,0.160,0.264,0.251,0.247,0.142,0.086,south,5.3,No
2020/11/19,07:40,0.177,0.159,0.262,0.248,0.248,0.143,0.086,south,5.8,No
2020/11/19,07:50,0.177,0.159,0.264,0.249,0.247,0.142,0.086,south-southwest,4.5,No
2020/11/19,08:00,0.178,0.159,0.261,0.247,0.246,0.143,0.086,south-southwest,3.6,No
2020/11/19,08:10,0.177,0.160,0.263,0.250,0.247,0.141,0.087,south,4.0,No
2020/11/19,08:20,0.176,0.159,0.262,0.248,0.245,0.143,0.086,south,5.3,No
2020/11/19,08:30,0.176,0.159,0.265,0.250,0.246,0.142,0.086,south,7.0,No
2020/11/19,08:40,0.179,0.159,0.262,0.248,0.246,0.142,0.085,south,7.4,No
2020/11/19,08:50,0.176,0.159,0.263,0.249,0.247,0.142,0.085,south,7.4,No
2020/11/19,09:00,0.178,0.159,0.261,0.249,0.247,0.143,0.085,south-southeast,7.1,No
2020/11/19,09:10,0.176,0.159,0.265,0.247,0.245,0.143,0.086,south,7.4,No
2020/11/19,09:20,0.178,0.159,0.262,0.249,0.248,0.142,0.086,south,7.7,No
2020/11/19,09:30,0.178,0.158,0.264,0.247,0.246,0.143,0.085,south,7.7,No
2020/11/19,09:40,0.176,0.160,0.264,0.247,0.245,0.143,0.086,south-southeast,7.8,No
2020/11/19,09:50,0.178,0.159,0.263,0.250,0.248,0.142,0.086,south,7.9,No
2020/11/19,10:00,0.175,0.159,0.264,0.248,0.244,0.143,0.087,south,7.0,No
2020/11/19,10:10,0.178,0.158,0.261,0.251,0.248,0.142,0.086,south,6.9,No
2020/11/19,10:20,0.176,0.159,0.265,0.249,0.246,0.142,0.085,south,6.7,No
2020/11/19,10:30,0.174,0.160,0.261,0.248,0.243,0.143,0.086,south,6.4,No
2020/11/19,10:40,0.178,0.159,0.261,0.251,0.245,0.142,0.085,south,5.8,No
2020/11/19,10:50,0.177,0.160,0.264,0.249,0.247,0.143,0.086,south,5.6,No
2020/11/19,11:00,0.177,0.159,0.264,0.247,0.245,0.143,0.086,south,5.9,No
2020/11/19,11:10,0.176,0.160,0.260,0.251,0.244,0.142,0.086,south-southeast,6.7,No
2020/11/19,11:20,0.179,0.160,0.264,0.251,0.248,0.142,0.085,south-southeast,7.7,No
2020/11/19,11:30,0.178,0.160,0.263,0.249,0.247,0.142,0.086,south-southeast,8.5,No
2020/11/19,11:40,0.176,0.159,0.261,0.252,0.245,0.142,0.086,south-southeast,9.6,No
2020/11/19,11:50,0.176,0.159,0.264,0.250,0.247,0.142,0.086,south-southeast,9.8,No
2020/11/19,12:00,0.178,0.158,0.264,0.247,0.248,0.142,0.085,south,10.1,No
2020/11/19,12:10,0.176,0.160,0.261,0.250,0.245,0.142,0.087,south,9.8,No
2020/11/19,12:20,0.175,0.159,0.262,0.249,0.245,0.143,0.086,south-southeast,9.0,No
2020/11/19,12:30,0.177,0.159,0.265,0.249,0.248,0.142,0.085,south-southeast,8.6,No
2020/11/19,12:40,0.176,0.160,0.263,0.250,0.246,0.143,0.086,south-southeast,10.0,No
2020/11/19,12:50,0.176,0.159,0.261,0.250,0.245,0.143,0.085,south-southeast,10.3,No
2020/11/19,13:00,0.175,0.158,0.264,0.246,0.248,0.142,0.086,south,10.1,No
2020/11/19,13:10,0.178,0.160,0.263,0.249,0.247,0.143,0.086,south-southeast,10.3,No
2020/11/19,13:20,0.178,0.160,0.260,0.250,0.246,0.142,0.086,south-southeast,9.6,No
2020/11/19,13:30,0.176,0.159,0.263,0.248,0.247,0.142,0.085,south,10.3,No
2020/11/19,13:40,0.175,0.160,-,0.251,0.246,0.143,0.086,south,9.2,No
2020/11/19,13:50,0.178,0.159,-,0.250,0.246,0.142,0.086,south,10.9,No
2020/11/19,14:00,0.178,0.159,-,0.249,0.249,0.143,0.085,south,10.4,No
2020/11/19,14:10,0.176,0.161,-,0.252,0.246,0.143,0.086,south,10.4,No
2020/11/19,14:20,0.179,0.159,-,0.250,0.245,0.142,0.086,south,11.4,No
2020/11/19,14:30,0.177,0.159,-,0.248,0.248,0.143,0.086,south,10.9,No
2020/11/19,14:40,0.178,0.160,-,0.251,0.247,0.142,0.085,south,9.5,No
2020/11/19,14:50,0.178,0.160,0.264,0.250,0.248,0.143,0.085,south,10.7,No
2020/11/19,15:00,0.176,0.159,0.264,0.249,0.249,0.142,0.086,south-southeast,9.5,No
2020/11/19,15:10,0.179,0.160,0.264,0.251,0.245,0.143,0.086,south-southeast,9.5,No
2020/11/19,15:20,0.176,0.158,0.265,0.249,0.248,0.143,0.086,south,9.2,No
2020/11/19,15:30,0.178,0.159,0.263,0.251,0.247,0.141,0.085,south,9.8,No
2020/11/19,15:40,0.177,0.160,0.266,0.249,0.246,0.142,0.086,south,9.5,No
2020/11/19,15:50,0.177,0.159,0.263,0.249,0.248,0.142,0.085,south,8.7,No
2020/11/19,16:00,0.178,0.159,0.264,0.250,0.245,0.144,0.085,south,8.2,No
2020/11/19,16:10,0.177,0.161,0.264,0.249,0.248,0.142,0.084,south,8.4,No
2020/11/19,16:20,0.177,0.159,0.264,0.250,0.246,0.142,0.086,south,8.6,No
2020/11/19,16:30,0.176,0.159,0.263,0.250,0.247,0.142,0.086,south,8.4,No
2020/11/19,16:40,0.178,0.159,0.265,0.249,0.246,0.141,0.085,south,9.0,No
2020/11/19,16:50,0.177,0.160,0.263,0.249,0.248,0.142,0.086,south,10.1,No
2020/11/19,17:00,0.178,0.159,0.266,0.251,0.246,0.142,0.084,south,9.5,No
2020/11/19,17:10,0.176,0.158,0.262,0.248,0.247,0.142,0.085,south,8.7,No
2020/11/19,17:20,0.177,0.158,0.264,0.251,0.245,0.142,0.085,south,9.5,No
2020/11/19,17:30,0.176,0.160,0.263,0.249,0.246,0.142,0.085,south,8.8,No
2020/11/19,17:40,0.177,0.159,0.264,0.251,0.247,0.143,0.084,south-southwest,9.0,No
2020/11/19,17:50,0.177,0.159,0.262,0.248,0.245,0.142,0.086,south,8.5,No
2020/11/19,18:00,0.177,0.159,0.264,0.250,0.248,0.142,0.086,south,8.6,No
2020/11/19,18:10,0.178,0.160,0.263,0.248,0.245,0.142,0.085,south-southwest,10.7,No
2020/11/19,18:20,0.177,0.159,0.264,0.250,0.247,0.142,0.085,south-southwest,9.8,No
2020/11/19,18:30,0.177,0.158,0.263,0.248,0.245,0.141,0.085,south,9.0,No
2020/11/19,18:40,0.175,0.159,0.263,0.250,0.249,0.142,0.085,south-southwest,9.6,No
2020/11/19,18:50,0.177,0.158,0.263,0.249,0.247,0.142,0.085,south-southwest,9.8,No
2020/11/19,19:00,0.176,0.158,0.264,0.250,0.248,0.142,0.085,south-southwest,9.6,No
2020/11/19,19:10,0.177,0.159,0.262,0.248,0.245,0.142,0.085,south-southwest,10.7,No
2020/11/19,19:20,0.176,0.159,0.263,0.250,0.247,0.142,0.085,south-southwest,10.7,No
2020/11/19,19:30,0.178,0.160,0.263,0.249,0.246,0.143,0.086,south-southwest,10.4,No
2020/11/19,19:40,0.176,0.159,0.263,0.250,0.247,0.141,0.085,south-southwest,10.9,No
2020/11/19,19:50,0.178,0.159,0.263,0.249,0.247,0.143,0.085,south-southwest,10.1,No
2020/11/19,20:00,0.176,0.158,0.264,0.251,0.246,0.142,0.085,south,9.8,No
2020/11/19,20:10,0.178,0.160,0.262,0.249,0.246,0.142,0.085,south,9.8,No
2020/11/19,20:20,0.176,0.160,0.263,0.250,0.247,0.142,0.085,south,11.5,No
2020/11/19,20:30,0.178,0.160,0.263,0.249,0.248,0.142,0.085,south,10.0,No
2020/11/19,20:40,0.177,0.159,0.263,0.250,0.245,0.142,0.085,south,11.2,No
2020/11/19,20:50,0.177,0.159,0.264,0.249,0.247,0.141,0.085,south,9.8,No
2020/11/19,21:00,0.176,0.159,0.264,0.250,0.245,0.143,0.086,south,10.6,No
2020/11/19,21:10,0.177,0.159,0.263,0.249,0.248,0.141,0.085,south-southeast,10.1,No
2020/11/19,21:20,0.176,0.159,0.265,0.249,0.247,0.143,0.086,south-southeast,9.8,No
2020/11/19,21:30,0.176,0.158,0.264,0.249,0.249,0.141,0.085,south-southeast,9.5,No
2020/11/19,21:40,0.178,0.160,0.264,0.249,0.245,0.143,0.085,south-southeast,10.3,No
2020/11/19,21:50,0.176,0.159,0.264,0.250,0.246,0.143,0.084,south-southeast,9.6,No
2020/11/19,22:00,0.177,0.160,0.264,0.250,0.246,0.142,0.086,south-southeast,9.6,No
2020/11/19,22:10,0.176,0.159,0.263,0.249,0.248,0.142,0.085,south-southeast,9.3,No
2020/11/19,22:20,0.177,0.159,0.263,0.248,0.245,0.143,0.086,south-southeast,8.8,No
2020/11/19,22:30,0.176,0.159,0.263,0.251,0.247,0.143,0.086,south-southeast,9.0,No
2020/11/19,22:40,0.179,0.159,0.263,0.250,0.245,0.142,0.086,southeast,7.8,No
2020/11/19,22:50,0.176,0.158,0.263,0.250,0.246,0.142,0.085,southeast,7.0,No
2020/11/19,23:00,0.178,0.160,0.264,0.250,0.244,0.142,0.084,southeast,7.0,No
2020/11/19,23:10,0.176,0.158,0.264,0.251,0.247,0.142,0.085,south-southeast,7.0,No
2020/11/19,23:20,0.178,0.160,0.264,0.248,0.245,0.141,0.086,south-southeast,6.4,No
2020/11/19,23:30,0.177,0.159,0.262,0.250,0.246,0.142,0.085,south-southeast,6.4,No
2020/11/19,23:40,0.177,0.160,0.264,0.250,0.246,0.142,0.085,south-southeast,6.7,No
2020/11/19,23:50,0.177,0.158,0.263,0.251,0.245,0.142,0.085,south-southeast,7.2,No
